Weather in Khvatov Zavod

Russia / Smolensk Oblast     54°53′34″N   34°13′55″E
temp.,
°C
wind,
m/s
gust,
m/s
humid.,
%
clouds,
%
prec.,
mm/h
press.,
hPa
HPBL,
m
8 december, wed
wed800:00−5n2693100 0.1 1017420
03:00−8n3695100 0.1 1019273
06:00−13n399545 0.0 1020190
09:00−14nne399535 0.0 1022193
12:00−11nne488939 0.0 1022250
15:00−11nne4108959 0.0 1022316
18:00−12nne4129086 0.0 1023292
21:00−13ne4129080 0.0 1023299
9 december, thu
thu900:00−13ne412905 0.0 1024273
03:00−13ne412909 0.0 1024268
06:00−13ne412905 0.0 1024264
09:00−14ne412905 0.0 1026255
12:00−11ne411835 0.0 1026282
15:00−10ne410845 0.0 1027305
18:00−12ne411885 0.0 1028239
21:00−12ene311895 0.0 1029265
10 december, fri
fri1000:00−12e311915 0.0 1030260
03:00−13e311925 0.0 1030237
06:00−13e412908 0.0 1030264
09:00−13e414895 0.0 1030304
12:00−10ese414835 0.0 1030350
15:00−9ese413825 0.0 1029378
18:00−10ese514855 0.0 1030345
21:00−10ese5158417 0.0 1030351
11 december, sat
sat1100:00−10ese51584100 0.0 1030360
03:00−9ese51587100 0.0 1030365
06:00−8ese51588100 0.0 1029371
09:00−8ese51591100 0.0 1029409
12:00−6ese51490100 0.0 1029423
15:00−5ese51491100 0.0 1028456
18:00−5ese51493100 0.0 1029447
21:00−4se51495100 0.2 1029520
12 december, sun
sun1200:00−2se41294100 1.1 1029457
03:00−1se41195100 1.1 1030395
06:00−1se41095100 0.0 1030328
09:00−1se3995100 0.0 1031303
12:000se31094100 0.0 1032371
15:000se41192100 0.0 1031378
18:00−1se41293100 0.0 1030379
21:00−2se41389100 0.0 1030405